04.05.2024;08:00;33
04.05.2024;07:00;28
04.05.2024;06:00;27
04.05.2024;05:00;34
04.05.2024;04:00;61
04.05.2024;03:00;59
04.05.2024;02:00;54
04.05.2024;01:00;50
04.05.2024;00:00;53
03.05.2024;23:00;58
03.05.2024;22:00;59
03.05.2024;21:00;65
03.05.2024;20:00;63
03.05.2024;19:00;66
03.05.2024;18:00;71
03.05.2024;17:00;80
03.05.2024;16:00;82
03.05.2024;15:00;80
03.05.2024;14:00;72
03.05.2024;13:00;63
03.05.2024;12:00;67
03.05.2024;11:00;64
03.05.2024;10:00;61
03.05.2024;09:00;58
03.05.2024;08:00;57
03.05.2024;07:00;59
03.05.2024;06:00;64
03.05.2024;05:00;62
03.05.2024;04:00;59
03.05.2024;03:00;59
03.05.2024;02:00;54
03.05.2024;01:00;52
03.05.2024;00:00;49
02.05.2024;23:00;54
02.05.2024;22:00;66
02.05.2024;21:00;79
02.05.2024;20:00;86
02.05.2024;19:00;94
02.05.2024;18:00;95
02.05.2024;17:00;100
02.05.2024;16:00;99
02.05.2024;15:00;94
02.05.2024;14:00;102
02.05.2024;13:00;89
02.05.2024;12:00;83
02.05.2024;11:00;66
02.05.2024;10:00;56
02.05.2024;09:00;43
